User: anonymous   Login
Location: Unspecified
(0.0000°N, 0.0000°E)
Time: 10:23:28
(UTC+00:00)
Language:

USA 238 - Orbit

View from above orbital plane
View from above orbital plane
View from above satellite
View from above satellite

Ground track
Ground track

The orbit data is extracted from the following two-line orbital elements,

1 38758U 12048A   19103.92594813 0.00000000  00000-0  00000-0 0    04
2 38758  63.4414  47.2332 0085013   2.0347 357.9652 13.40782260    09
Epoch (UTC): 13 April 2019 22:13:21
Eccentricity: 0.0085013
inclination: 63.4414°
perigee height: 1043 km
apogee height: 1170 km
right ascension of ascending node: 47.2332°
argument of perigee: 2.0347°
revolutions per day: 13.40782260
mean anomaly at epoch: 357.9652°
orbit number at epoch: 0

The dashed part of the orbit path shows where the satellite is in the earth's shadow,  

DLR